Powrót do katalogu

STARLINK-34423

AktywnyŁącznośćVLEO
NORAD 64460·PAYLOAD·🇺🇸 United States

Wystrzelony Jun 18, 2025 z Cape Canaveral Space Force Station

Loading…

Następne Przeloty (najbliższe 24 godziny)

TLE

ŚwieżeSource: CelesTrak SupGP

Epoka: Sep 14, 2026, 20:42 UTC

1 64460C 25130Y   26257.86298611  .00016811  00000+0  49691-3 0  2579
2 64460  53.1579 288.2070 0001164  81.1508 126.1841 15.34368135    17

Śledź STARLINK-34423 w czasie rzeczywistym z AllMySat

Download on the App Store